FALCON 9 R/B, 58996

Orbit data source: Space-Track

FALCON 9 R/B, 58996 is space debris in HEO originally from a launch on Tue, 20 Feb 2024 UTC launched from the Air Force Eastern Test Range (AFETR). Debris objects in space refer to the collection of defunct objects orbiting the Earth. Examples of debris include non-operational satellites, rocket bodies, and fragments generated from explosions, collisions, or faulty payload assembly.

Loading next visibility...
Identifier
58996, 2024-035B
Orbit
HEO
Country
Flag of USUS
Related business
Manufacturer
SpaceX
Mission
Spacecraft
Bus & Motor
F9ST2, Unknown motor
Mass
~4,000 kg wet, ~4,000 kg dry
Launch date (UTC)
2024-02-20 (2 years ago)
Launch vehicle
Unknown
Launch site
Air Force Eastern Test Range (AFETR)
Object type
Payload
Rocket body
Debris
Shape & HBR
Cyl, 7.8 m
Radar Cross Section
39.980 m², Large (>1 m²)

Expand to show TLE details & history
Last TLE update: 2 days ago

TLE from 2 days ago
0 FALCON 9 R/B
1 58996U 24035B   26072.21464312  .00001338  00000-0  96758-3 0  9994
2 58996  18.9747 116.6500 8033281 122.6532 338.3775  1.39782072 10466
Epoch: 2026-03-13T05:09Z
TLE epoch observation values (Epoch: 2026-03-13T05:09:05.165Z)
Latitude
-0.00029°
Longitude
-131.28599°
Altitude
14,721.125 km
Speed
5.097 km/s
True Right ascension
07h 47m 21s
True Declination
0° 00' 01"
Sunlit
Object was in daylight at epoch
Visualization orbit readout
Latitude
Unknown
Longitude
Unknown
Altitude
Unknown
Speed
Unknown
Apparent Right ascension
Unknown
Apparent Declination
Unknown
Sunlit
N/A
Visualization observer readout
Local Sidereal Time
18:28:38
Azimuth
Unknown
Elevation
Unknown
Doppler factor
Unknown
Orbital elements
Apogee altitude
54,562.822 km
Perigee altitude
268.116 km
Semi-major axis
33,793.606 km
Eccentricity
0.80333
Inclination
18.9747°
RAAN
116.65°
Arg. of periapsis
122.6532°
True anomaly
237.18871°
Mean anomaly
338.3775°
Eccentric anomaly
297.58078°
Mean motion
0.34937 °/min
Orbital period
1,030.41 mins
BSTAR
0.00096758
Loading maneuver chart data...
Computing Atmospheric mass density...
Loading historical data...
Loading historical data...
Loading historical data...
Loading historical data...
Loading historical data...
Loading historical data...
Loading historical data...
Other satellites on launch #35 in the year 2024 (2024-02-20 UTC)

Documentation

Showing up to 5 results
|